QPF
0.00 0.00 0.00 0.00 0.00 0.00 0.00 0.00 0.00 0.00 0.00 0.00 0.00 0.00 0.00 0.00 0.00 0.00 0.00 0.00 0.00 0.00
0.00 0.00 0.00 0.00 0.00 0.00 0.00 0.00 0.00 0.00 0.00 0.00 0.00 0.00 0.00 0.00 0.00 0.00 0.00 0.00 0.00 0.00
0.00 0.00 0.00 0.00 0.00 0.00 0.00 0.00 0.00 0.00 0.00 0.00 0.00 0.00 0.00 0.00 0.00 0.00 0.00 0.00 0.00 0.00
0.00 0.00 0.00 0.00 0.00 0.00 0.00 0.00 0.00 0.00 0.00 0.00 0.00 0.00 0.00 0.00 0.00 0.00 0.00 0.00 0.00 0.00
0.00 0.00 0.00 0.00 0.00 0.00 0.00 0.00 0.00 0.00 0.00 0.00 0.00 0.00 0.00 0.00 0.00 0.00 0.00 0.00 0.00 0.00
0.00 0.00 0.00 0.00 0.00 0.00 0.00 0.00 0.00 0.00 0.00 0.00 0.00 0.00 0.00 0.00 0.00 0.00 0.00 0.00 0.00 0.00
0.00 0.00 0.00 0.00 0.00 0.00 0.00 0.00 0.00 0.00 0.00 0.00 0.00 0.00 0.00 0.00 0.00 0.00 0.00 0.00 0.00 0.00
0.00 0.00 0.00 0.00 0.00 0.00 0.00 0.00 0.00 0.00 0.00 0.00 0.00 0.00 0.00 0.00 0.00 0.00 0.00 0.00 0.00 0.00
0.00 0.00 0.00 0.00 0.00 0.00 0.00 0.00 0.00 0.00 0.00 0.00 0.00 0.00 0.00 0.00 0.00 0.00 0.00 0.00 0.00 0.00
0.00 0.00 0.00 0.00 0.00 0.00 0.00 0.00 0.00 0.00 0.00 0.00 0.00 0.00 0.00 0.00 0.00 0.00 0.00 0.00 0.00 0.00
0.01 0.00 0.00 0.00 0.00 0.00 0.00 0.00 0.00 0.00 0.00 0.00 0.00 0.00 0.00 0.00 0.00 0.00 0.00 0.00 0.00 0.00
0.05 0.02 0.00 0.00 0.00 0.00 0.00 0.00 0.00 0.00 0.00 0.00 0.00 0.00 0.00 0.00 0.00 0.00 0.00 0.00 0.00 0.00
0.06 0.05 0.01 0.00 0.00 0.00 0.00 0.00 0.00 0.00 0.00 0.00 0.00 0.00 0.00 0.00 0.00 0.00 0.00 0.00 0.00 0.00
0.01 0.00 0.00 0.01 0.03 0.01 0.00 0.00 0.00 0.00 0.00 0.00 0.00 0.00 0.00 0.00 0.00 0.00 0.00 0.00 0.00 0.00
MSLP
1017.09 1017.49 1017.81 1017.96 1017.98 1018.10 1018.25 1018.10 1018.06 1018.37 1018.75 1018.86 1019.09 1019.21 1019.53 1020.01 1020.20 1020.45 1020.77 1020.98 1021.09 1021.26
1016.57 1017.04 1017.38 1017.57 1017.68 1017.74 1017.75 1017.74 1017.88 1018.07 1018.52 1018.68 1018.89 1019.12 1019.41 1019.84 1020.03 1020.31 1020.52 1020.71 1020.88 1020.94
1016.23 1016.54 1016.81 1017.21 1017.47 1017.53 1017.44 1017.55 1017.84 1018.07 1018.40 1018.65 1018.73 1018.95 1019.39 1019.64 1019.84 1020.13 1020.27 1020.33 1020.50 1020.65
1015.66 1016.31 1016.63 1016.91 1017.08 1017.26 1017.31 1017.43 1017.61 1017.79 1018.10 1018.45 1018.74 1018.97 1019.34 1019.50 1019.63 1019.85 1019.97 1020.11 1020.26 1020.34
1014.83 1015.65 1016.31 1016.58 1016.61 1016.82 1017.09 1017.23 1017.29 1017.53 1017.79 1018.06 1018.37 1018.66 1019.02 1019.22 1019.34 1019.60 1019.80 1019.78 1020.03 1020.05
1014.09 1014.74 1015.36 1015.89 1016.22 1016.44 1016.70 1016.95 1017.11 1017.19 1017.34 1017.66 1017.95 1018.28 1018.64 1018.84 1018.98 1019.19 1019.37 1019.47 1019.63 1019.70
1012.97 1013.70 1014.38 1015.04 1015.61 1015.94 1016.16 1016.38 1016.56 1016.70 1016.90 1017.08 1017.35 1017.73 1018.10 1018.38 1018.52 1018.67 1018.85 1018.99 1019.15 1019.28
1012.13 1012.73 1013.53 1014.12 1014.71 1015.21 1015.54 1015.68 1015.99 1016.23 1016.39 1016.62 1016.87 1017.12 1017.51 1017.78 1017.93 1018.13 1018.35 1018.49 1018.63 1018.73
1011.21 1011.85 1012.37 1013.01 1013.65 1014.37 1014.64 1014.97 1015.33 1015.54 1015.76 1016.03 1016.20 1016.48 1016.90 1017.22 1017.51 1017.60 1017.85 1018.02 1018.08 1018.15
1010.66 1011.05 1011.55 1012.25 1012.84 1013.25 1013.73 1014.20 1014.47 1014.76 1015.13 1015.39 1015.54 1015.77 1016.22 1016.61 1016.89 1017.07 1017.19 1017.31 1017.46 1017.61
1009.97 1010.34 1010.73 1011.44 1011.81 1012.19 1012.76 1013.18 1013.59 1013.91 1014.13 1014.61 1014.78 1015.11 1015.57 1015.98 1016.35 1016.41 1016.39 1016.55 1016.73 1016.89
1009.74 1009.62 1009.85 1010.27 1010.87 1011.30 1011.64 1012.19 1012.53 1012.81 1013.37 1013.71 1013.95 1014.34 1014.79 1015.33 1015.75 1015.75 1015.63 1015.75 1015.91 1016.17
1009.93 1009.46 1009.20 1009.16 1009.61 1010.06 1010.42 1010.74 1011.49 1011.88 1012.14 1012.62 1013.02 1013.42 1013.91 1014.57 1015.00 1015.12 1015.09 1015.14 1015.18 1015.27
1008.82 1008.09 1007.75 1008.09 1008.78 1009.09 1009.33 1009.79 1010.35 1010.93 1011.15 1011.48 1011.90 1012.23 1012.74 1013.39 1013.97 1013.92 1014.07 1014.20 1014.25 1014.36
Thickness
5788 5789 5789 5791 5794 5795 5795 5797 5797 5795 5794 5794 5794 5793 5790 5787 5785 5784 5783 5782 5782 5782
5790 5791 5791 5793 5795 5798 5800 5800 5799 5798 5796 5795 5794 5793 5792 5789 5787 5786 5785 5785 5785 5785
5788 5791 5793 5793 5793 5796 5799 5799 5799 5798 5797 5796 5795 5795 5793 5792 5791 5788 5788 5789 5788 5788
5787 5788 5790 5792 5794 5795 5797 5799 5800 5802 5800 5798 5796 5795 5793 5793 5794 5791 5790 5790 5789 5790
5789 5786 5786 5789 5794 5796 5796 5797 5799 5802 5802 5801 5800 5798 5795 5794 5795 5793 5791 5792 5790 5791
5789 5790 5790 5790 5792 5795 5796 5796 5798 5802 5803 5803 5802 5801 5798 5797 5796 5795 5794 5794 5792 5792
5794 5793 5792 5792 5791 5793 5796 5796 5797 5800 5803 5804 5805 5803 5801 5798 5797 5797 5796 5796 5795 5794
5792 5794 5792 5793 5793 5794 5796 5799 5799 5798 5801 5803 5805 5805 5803 5802 5800 5799 5798 5797 5796 5796
5792 5795 5796 5797 5796 5794 5797 5799 5800 5801 5802 5802 5805 5805 5803 5802 5800 5800 5798 5796 5797 5798
5790 5791 5794 5794 5795 5797 5798 5798 5801 5802 5802 5802 5804 5804 5802 5801 5801 5800 5800 5799 5798 5797
5793 5789 5791 5789 5794 5799 5799 5799 5800 5802 5804 5802 5805 5805 5802 5800 5800 5801 5802 5801 5799 5799
5787 5791 5792 5791 5791 5796 5801 5800 5801 5804 5802 5803 5806 5804 5802 5798 5799 5800 5802 5802 5802 5801
5782 5787 5792 5796 5795 5797 5802 5805 5801 5801 5806 5806 5806 5806 5803 5799 5800 5798 5800 5802 5803 5802
5786 5796 5799 5799 5797 5796 5802 5804 5803 5802 5806 5808 5809 5809 5805 5801 5802 5804 5801 5801 5804 5805